Orbital Elements
Epoch 2021 Dec. 12.0 TT = JDT 2459560.5
T 2021 Dec. 18.07276 TT Rudenko
q 1.7531300 (2000.0) P Q
n 0.15344860 Peri. 40.11694 -0.01288544 +0.98843218
a 3.4553664 Node 229.70300 -0.96068028 -0.05415756
e 0.4926356 Incl. 11.42770 -0.27735783 +0.14166434
P 6.42
From 622 observations 2002 Apr. 14-2021 Apr. 4, mean residual 0".9.
|